TimeCDT,TemperatureF,Dew PointF,Humidity,Sea Level PressureIn,VisibilityMPH,Wind Direction,Wind SpeedMPH,Gust SpeedMPH,PrecipitationIn,Events,Conditions,WindDirDegrees,DateUTC
12:52 AM,33.1,32.0,96,29.81,3.0,ENE,9.2,-,0.08,Rain,Light Rain,60,2013-04-11 05:52:00
1:28 AM,33.8,32.0,93,29.76,2.5,NE,9.2,-,0.07,Rain,Rain,50,2013-04-11 06:28:00
1:37 AM,33.8,32.0,93,29.75,2.5,NE,10.4,-,0.08,Rain,Light Rain,50,2013-04-11 06:37:00
1:44 AM,33.8,32.0,93,29.75,3.0,ENE,10.4,-,0.09,Rain,Rain,70,2013-04-11 06:44:00
1:52 AM,33.1,32.0,96,29.80,5.0,ENE,9.2,-,0.10,Rain,Light Rain,60,2013-04-11 06:52:00
1:59 AM,33.8,32.0,93,29.76,2.5,ENE,10.4,-,0.01,Snow,Light Snow,60,2013-04-11 06:59:00
2:04 AM,33.8,32.0,93,29.75,1.8,ENE,10.4,-,0.01,Snow,Light Snow,60,2013-04-11 07:04:00
2:17 AM,33.8,32.0,93,29.74,2.0,NE,8.1,-,0.03,Snow,Light Snow,50,2013-04-11 07:17:00
2:22 AM,33.8,32.0,93,29.74,1.8,NE,10.4,-,0.03,Snow,Light Snow,50,2013-04-11 07:22:00
2:32 AM,32.0,32.0,100,29.74,1.0,ENE,10.4,-,0.04,Snow,Light Snow,60,2013-04-11 07:32:00
2:35 AM,32.0,32.0,100,29.73,1.2,ENE,11.5,-,0.05,Snow,Light Snow,60,2013-04-11 07:35:00
2:44 AM,32.0,32.0,100,29.73,1.0,NE,10.4,-,0.06,Snow,Light Snow,50,2013-04-11 07:44:00
2:52 AM,32.0,30.9,96,29.75,0.8,NE,15.0,-,0.07,Snow,Light Snow,50,2013-04-11 07:52:00
3:00 AM,32.0,30.2,93,29.71,1.0,NE,13.8,-,0.00,Snow,Light Snow,50,2013-04-11 08:00:00
3:11 AM,32.0,30.2,93,29.71,1.2,ENE,13.8,-,0.01,Snow,Light Snow,60,2013-04-11 08:11:00
3:17 AM,32.0,30.2,93,29.71,1.0,ENE,13.8,-,0.01,Snow,Light Snow,60,2013-04-11 08:17:00
3:28 AM,32.0,30.2,93,29.71,1.0,ENE,10.4,-,0.02,Snow,Light Snow,60,2013-04-11 08:28:00
3:44 AM,32.0,30.2,93,29.70,0.5,NE,12.7,-,0.04,Fog-Snow,Snow,50,2013-04-11 08:44:00
3:52 AM,32.0,30.9,96,29.75,0.5,NE,10.4,-,0.05,Fog-Snow,Snow,50,2013-04-11 08:52:00
4:17 AM,32.0,30.2,93,29.68,0.5,NE,16.1,-,0.03,Fog-Snow,Snow,50,2013-04-11 09:17:00
4:49 AM,32.0,30.2,93,29.67,0.5,NE,16.1,-,0.06,Fog-Snow,Snow,50,2013-04-11 09:49:00
4:52 AM,32.0,30.9,96,29.70,0.5,NE,17.3,-,0.06,Fog-Snow,Snow,50,2013-04-11 09:52:00
5:12 AM,32.0,30.2,93,29.65,1.2,NE,16.1,-,0.01,Snow,Light Snow,50,2013-04-11 10:12:00
5:30 AM,32.0,30.2,93,29.64,0.8,NE,13.8,-,0.02,Snow,Light Snow,50,2013-04-11 10:30:00
5:52 AM,30.9,30.0,96,29.67,1.0,NE,17.3,-,0.03,Snow,Light Snow,50,2013-04-11 10:52:00
5:58 AM,30.2,30.2,100,29.63,2.0,NE,17.3,-,0.00,Snow,Light Snow,50,2013-04-11 10:58:00
6:02 AM,30.2,30.2,100,29.63,3.0,NE,17.3,-,0.00,Snow,Light Snow,50,2013-04-11 11:02:00
6:17 AM,30.2,30.2,100,29.62,7.0,NE,16.1,-,0.00,,Overcast,50,2013-04-11 11:17:00
6:52 AM,30.9,30.0,96,29.66,10.0,ENE,13.8,-,0.00,,Overcast,60,2013-04-11 11:52:00
7:34 AM,32.0,30.2,93,29.63,7.0,East,15.0,-,N/A,,Overcast,80,2013-04-11 12:34:00
7:52 AM,32.0,30.0,92,29.66,4.0,East,15.0,-,N/A,,Overcast,80,2013-04-11 12:52:00
8:08 AM,32.0,30.2,93,29.62,2.0,ENE,15.0,-,N/A,,Overcast,70,2013-04-11 13:08:00
8:27 AM,32.0,30.2,93,29.62,5.0,ENE,16.1,-,N/A,,Overcast,70,2013-04-11 13:27:00
8:43 AM,32.0,30.2,93,29.61,1.8,ENE,17.3,-,N/A,,Overcast,70,2013-04-11 13:43:00
8:52 AM,32.0,30.9,96,29.65,1.5,ENE,16.1,-,N/A,,Overcast,70,2013-04-11 13:52:00
9:33 AM,32.0,30.2,93,29.62,1.0,ENE,15.0,-,N/A,,Overcast,70,2013-04-11 14:33:00
10:00 AM,33.8,30.2,87,29.63,1.2,ENE,13.8,-,N/A,,Overcast,70,2013-04-11 15:00:00
10:08 AM,33.8,30.2,87,29.62,1.0,ENE,13.8,-,N/A,,Overcast,70,2013-04-11 15:08:00
10:31 AM,33.8,30.2,87,29.61,1.2,ENE,11.5,-,N/A,,Overcast,60,2013-04-11 15:31:00
10:41 AM,33.8,30.2,87,29.61,1.0,ENE,11.5,-,N/A,,Overcast,60,2013-04-11 15:41:00
10:49 AM,33.8,30.2,87,29.62,1.2,ENE,11.5,-,N/A,,Overcast,60,2013-04-11 15:49:00
10:52 AM,33.1,30.9,92,29.66,1.2,ENE,11.5,-,N/A,,Overcast,60,2013-04-11 15:52:00
11:03 AM,33.8,30.2,87,29.62,1.0,ENE,12.7,-,N/A,,Overcast,60,2013-04-11 16:03:00
11:41 AM,33.8,32.0,93,29.61,1.2,ENE,11.5,-,N/A,,Overcast,70,2013-04-11 16:41:00
11:52 AM,34.0,32.0,92,29.65,1.2,ENE,11.5,-,N/A,,Overcast,70,2013-04-11 16:52:00
12:12 PM,33.8,32.0,93,29.60,1.0,ENE,12.7,-,N/A,,Overcast,70,2013-04-11 17:12:00
12:52 PM,34.0,32.0,92,29.63,1.0,ENE,10.4,-,N/A,,Overcast,60,2013-04-11 17:52:00
1:52 PM,34.0,32.0,92,29.63,1.0,ENE,11.5,-,N/A,,Overcast,60,2013-04-11 18:52:00
2:20 PM,33.8,32.0,93,29.58,1.2,ENE,11.5,-,0.00,Snow,Light Snow,60,2013-04-11 19:20:00
2:52 PM,34.0,32.0,92,29.62,2.0,NE,9.2,-,0.00,,Overcast,50,2013-04-11 19:52:00
3:52 PM,34.0,32.0,92,29.62,2.5,NE,8.1,-,N/A,,Overcast,50,2013-04-11 20:52:00
4:10 PM,33.8,32.0,93,29.58,1.8,NNE,9.2,-,0.01,Snow,Light Snow,30,2013-04-11 21:10:00
4:52 PM,33.1,32.0,96,29.62,1.5,NNE,8.1,-,0.01,Snow,Light Snow,20,2013-04-11 21:52:00
5:21 PM,33.8,32.0,93,29.59,2.5,NNE,9.2,-,0.00,Snow,Light Snow,20,2013-04-11 22:21:00
5:36 PM,33.8,32.0,93,29.59,3.0,NNE,9.2,-,0.00,,Overcast,20,2013-04-11 22:36:00
5:52 PM,34.0,32.0,92,29.62,3.0,NNE,11.5,-,0.00,,Overcast,20,2013-04-11 22:52:00
6:24 PM,33.8,32.0,93,29.59,2.0,NNE,11.5,-,0.01,Snow,Light Snow,20,2013-04-11 23:24:00
6:36 PM,33.8,30.2,87,29.59,1.5,NNE,12.7,-,0.01,Snow,Light Snow,20,2013-04-11 23:36:00
6:52 PM,33.1,30.9,92,29.62,1.8,NNE,12.7,-,0.01,Snow,Light Snow,20,2013-04-11 23:52:00
7:04 PM,33.8,30.2,87,29.59,2.0,NNE,11.5,-,0.00,Snow,Light Snow,20,2013-04-12 00:04:00
7:25 PM,33.8,30.2,87,29.58,1.8,NNE,11.5,-,0.00,Snow,Light Snow,20,2013-04-12 00:25:00
7:37 PM,33.8,30.2,87,29.58,2.0,NNE,11.5,-,0.00,Snow,Light Snow,20,2013-04-12 00:37:00
7:52 PM,33.1,30.9,92,29.62,2.0,NNE,11.5,-,0.00,Snow,Light Snow,20,2013-04-12 00:52:00
8:10 PM,33.8,30.2,87,29.58,4.0,NNE,12.7,-,0.00,Snow,Light Snow,20,2013-04-12 01:10:00
8:52 PM,33.1,30.9,92,29.63,5.0,NNE,12.7,-,0.00,,Overcast,20,2013-04-12 01:52:00
9:13 PM,33.8,30.2,87,29.60,6.0,NNE,13.8,-,N/A,,Overcast,20,2013-04-12 02:13:00
9:52 PM,32.0,30.9,96,29.65,4.0,NNE,12.7,-,0.00,Snow,Light Snow,20,2013-04-12 02:52:00
10:01 PM,32.0,30.2,93,29.61,2.0,NNE,11.5,-,0.00,Snow,Light Snow,20,2013-04-12 03:01:00
10:08 PM,32.0,30.2,93,29.61,1.8,NNE,10.4,-,0.00,Snow,Light Snow,20,2013-04-12 03:08:00
10:38 PM,32.0,30.2,93,29.61,2.0,North,10.4,-,0.00,Snow,Light Snow,10,2013-04-12 03:38:00
10:52 PM,32.0,30.9,96,29.65,2.0,North,10.4,-,0.00,Snow,Light Snow,360,2013-04-12 03:52:00
11:14 PM,32.0,30.2,93,29.62,3.0,North,11.5,-,0.00,Snow,Light Snow,10,2013-04-12 04:14:00
11:24 PM,32.0,30.2,93,29.62,2.0,North,11.5,-,0.00,Snow,Light Snow,360,2013-04-12 04:24:00
11:52 PM,32.0,30.9,96,29.66,2.5,North,11.5,-,0.01,Snow,Light Snow,350,2013-04-12 04:52:00